Tracking 35331 objects as of 14-Sep-2026
HD Live streaming from Space Station
objects crossing your sky now

STARLINK-30355

Track STARLINK-30355 now!
10-day predictions
STARLINK-30355 is classified as:


NORAD ID: 57777
Int'l Code: 2023-134G
Launch date: September 4, 2023
Source: United States (US)
Launch site: AIR FORCE EASTERN TEST RANGE (AFETR)
Your satellite tracking list
Your tracking list is empty




NASA's NSSDC Master Catalog

Two Line Element Set (TLE):
1 57777U 23134G   26257.25171922 -.00000622  00000-0 -13094-4 0  9990
2 57777  43.0031 213.0805 0000951 235.2078 124.8684 15.27576969168293
Source of the keplerian elements: AFSPC